QPF
0.04 0.04 0.01 0.00 0.02 0.03 0.05 0.05 0.06 0.07 0.09 0.08 0.08 0.09 0.09 0.08 0.10 0.11 0.09 0.08 0.04 0.03 0.04 0.05 0.06 0.05 0.07 0.04 0.03 0.05 0.06 0.05 0.04 0.06 0.07 0.04 0.02 0.03 0.02 0.02 0.02 0.01 0.01
0.01 0.01 0.01 0.01 0.02 0.03 0.04 0.06 0.05 0.06 0.08 0.08 0.08 0.09 0.10 0.07 0.07 0.08 0.09 0.07 0.04 0.02 0.03 0.06 0.06 0.06 0.08 0.06 0.05 0.07 0.09 0.08 0.05 0.07 0.13 0.12 0.08 0.06 0.02 0.02 0.02 0.02 0.01
0.00 0.01 0.01 0.03 0.03 0.03 0.04 0.05 0.06 0.06 0.08 0.09 0.09 0.10 0.10 0.10 0.09 0.08 0.08 0.06 0.05 0.03 0.04 0.05 0.06 0.07 0.05 0.07 0.06 0.06 0.08 0.10 0.07 0.05 0.10 0.12 0.13 0.09 0.05 0.03 0.02 0.02 0.03
0.02 0.02 0.02 0.03 0.03 0.03 0.03 0.05 0.06 0.06 0.07 0.08 0.08 0.07 0.07 0.08 0.09 0.07 0.06 0.06 0.06 0.04 0.03 0.04 0.05 0.06 0.05 0.08 0.04 0.06 0.07 0.09 0.07 0.05 0.04 0.06 0.09 0.10 0.11 0.06 0.03 0.03 0.03
0.04 0.05 0.04 0.04 0.06 0.06 0.05 0.05 0.06 0.05 0.06 0.08 0.09 0.11 0.10 0.11 0.12 0.13 0.12 0.10 0.08 0.05 0.04 0.05 0.06 0.06 0.07 0.07 0.05 0.06 0.05 0.06 0.05 0.05 0.05 0.05 0.06 0.05 0.07 0.09 0.07 0.06 0.02
0.03 0.09 0.09 0.07 0.08 0.07 0.04 0.04 0.08 0.07 0.05 0.06 0.10 0.12 0.12 0.13 0.14 0.16 0.13 0.11 0.11 0.08 0.06 0.06 0.06 0.06 0.07 0.07 0.06 0.05 0.05 0.05 0.05 0.06 0.05 0.06 0.06 0.05 0.06 0.06 0.06 0.05 0.02
0.00 0.02 0.03 0.04 0.04 0.04 0.03 0.03 0.06 0.07 0.05 0.05 0.06 0.10 0.13 0.14 0.13 0.14 0.17 0.14 0.12 0.10 0.08 0.06 0.06 0.06 0.06 0.06 0.05 0.05 0.07 0.06 0.06 0.06 0.05 0.04 0.04 0.03 0.03 0.05 0.05 0.05 0.03
0.00 0.00 0.01 0.01 0.02 0.02 0.03 0.03 0.06 0.07 0.05 0.05 0.05 0.07 0.11 0.12 0.11 0.13 0.18 0.18 0.15 0.12 0.11 0.10 0.08 0.07 0.06 0.06 0.08 0.06 0.06 0.06 0.06 0.05 0.06 0.05 0.03 0.02 0.03 0.06 0.07 0.07 0.06
0.00 0.00 0.00 0.00 0.01 0.02 0.03 0.05 0.06 0.06 0.05 0.05 0.06 0.08 0.09 0.11 0.13 0.13 0.16 0.18 0.16 0.14 0.13 0.11 0.08 0.07 0.08 0.09 0.10 0.08 0.08 0.08 0.06 0.05 0.06 0.05 0.04 0.04 0.04 0.05 0.07 0.07 0.08
0.06 0.03 0.00 0.01 0.01 0.02 0.02 0.04 0.04 0.06 0.07 0.08 0.07 0.08 0.10 0.12 0.15 0.14 0.14 0.14 0.14 0.15 0.14 0.11 0.10 0.11 0.11 0.11 0.11 0.10 0.10 0.10 0.08 0.07 0.08 0.07 0.06 0.06 0.06 0.06 0.08 0.07 0.07
0.07 0.05 0.01 0.01 0.01 0.01 0.02 0.03 0.04 0.07 0.07 0.06 0.07 0.09 0.10 0.11 0.13 0.16 0.15 0.16 0.15 0.15 0.15 0.14 0.13 0.12 0.11 0.12 0.12 0.11 0.11 0.10 0.09 0.07 0.08 0.07 0.08 0.09 0.08 0.07 0.07 0.08 0.08
0.03 0.06 0.03 0.01 0.01 0.01 0.01 0.02 0.03 0.05 0.05 0.05 0.07 0.11 0.11 0.11 0.11 0.12 0.12 0.15 0.15 0.15 0.14 0.13 0.13 0.11 0.12 0.14 0.13 0.11 0.10 0.09 0.08 0.07 0.07 0.07 0.09 0.09 0.09 0.08 0.07 0.07 0.08
0.03 0.03 0.02 0.01 0.02 0.02 0.03 0.03 0.04 0.05 0.05 0.05 0.07 0.08 0.09 0.09 0.09 0.10 0.12 0.14 0.16 0.17 0.16 0.15 0.15 0.12 0.13 0.14 0.12 0.11 0.10 0.09 0.08 0.08 0.07 0.07 0.08 0.08 0.08 0.08 0.08 0.09 0.09
0.02 0.02 0.01 0.01 0.01 0.02 0.03 0.04 0.06 0.08 0.06 0.05 0.05 0.06 0.07 0.07 0.07 0.09 0.11 0.14 0.17 0.19 0.18 0.16 0.16 0.14 0.14 0.15 0.13 0.11 0.10 0.10 0.10 0.09 0.09 0.08 0.07 0.07 0.07 0.07 0.08 0.08 0.08
0.02 0.03 0.03 0.03 0.03 0.03 0.03 0.04 0.06 0.10 0.07 0.06 0.05 0.06 0.06 0.07 0.07 0.07 0.08 0.09 0.12 0.15 0.16 0.16 0.16 0.15 0.14 0.13 0.12 0.11 0.11 0.12 0.12 0.12 0.10 0.10 0.08 0.06 0.05 0.04 0.05 0.05 0.06
0.03 0.03 0.03 0.03 0.03 0.03 0.03 0.04 0.04 0.05 0.06 0.05 0.05 0.05 0.06 0.06 0.07 0.08 0.08 0.08 0.11 0.14 0.15 0.16 0.17 0.14 0.12 0.13 0.14 0.13 0.13 0.14 0.14 0.13 0.13 0.10 0.08 0.06 0.05 0.04 0.04 0.04 0.05
0.02 0.03 0.02 0.02 0.03 0.03 0.02 0.03 0.04 0.05 0.06 0.07 0.07 0.06 0.07 0.07 0.08 0.08 0.08 0.07 0.08 0.11 0.15 0.19 0.20 0.15 0.13 0.13 0.11 0.12 0.11 0.12 0.12 0.13 0.15 0.13 0.12 0.12 0.10 0.09 0.06 0.04 0.04
0.02 0.02 0.02 0.02 0.03 0.02 0.02 0.03 0.03 0.03 0.04 0.08 0.12 0.15 0.14 0.11 0.11 0.09 0.08 0.07 0.08 0.09 0.11 0.13 0.12 0.11 0.10 0.11 0.09 0.08 0.08 0.10 0.11 0.11 0.12 0.13 0.14 0.17 0.18 0.16 0.13 0.10 0.08
0.02 0.02 0.02 0.03 0.03 0.02 0.03 0.03 0.03 0.03 0.04 0.06 0.10 0.15 0.16 0.15 0.11 0.08 0.07 0.07 0.07 0.08 0.09 0.09 0.09 0.09 0.09 0.09 0.08 0.07 0.07 0.09 0.10 0.10 0.10 0.10 0.10 0.13 0.15 0.15 0.15 0.15 0.12
0.01 0.02 0.03 0.03 0.02 0.02 0.02 0.02 0.04 0.04 0.04 0.04 0.05 0.07 0.09 0.09 0.07 0.05 0.04 0.06 0.07 0.09 0.09 0.08 0.07 0.07 0.06 0.06 0.05 0.05 0.06 0.08 0.09 0.09 0.09 0.10 0.10 0.10 0.10 0.09 0.09 0.08 0.08
0.02 0.02 0.03 0.03 0.03 0.03 0.03 0.03 0.03 0.04 0.04 0.03 0.03 0.03 0.05 0.06 0.05 0.05 0.05 0.07 0.08 0.09 0.10 0.09 0.08 0.08 0.09 0.09 0.07 0.06 0.06 0.07 0.07 0.07 0.06 0.06 0.06 0.05 0.04 0.03 0.04 0.04 0.04
0.02 0.01 0.03 0.04 0.05 0.04 0.05 0.04 0.03 0.03 0.03 0.03 0.04 0.03 0.04 0.04 0.04 0.05 0.06 0.08 0.12 0.13 0.14 0.14 0.12 0.12 0.11 0.10 0.08 0.07 0.06 0.06 0.05 0.04 0.04 0.03 0.03 0.02 0.02 0.02 0.02 0.02 0.02
0.01 0.02 0.03 0.04 0.05 0.06 0.07 0.05 0.04 0.04 0.04 0.03 0.03 0.02 0.03 0.04 0.05 0.06 0.06 0.07 0.08 0.09 0.10 0.11 0.11 0.12 0.10 0.09 0.08 0.07 0.06 0.06 0.05 0.05 0.04 0.03 0.02 0.01 0.01 0.01 0.01 0.01 0.01
0.03 0.03 0.04 0.04 0.05 0.06 0.07 0.06 0.05 0.06 0.06 0.04 0.03 0.03 0.04 0.04 0.05 0.05 0.06 0.06 0.06 0.06 0.07 0.08 0.10 0.11 0.10 0.09 0.09 0.08 0.07 0.07 0.06 0.04 0.03 0.03 0.03 0.02 0.02 0.02 0.02 0.01 0.01
0.04 0.03 0.04 0.03 0.03 0.03 0.04 0.04 0.04 0.04 0.04 0.04 0.04 0.04 0.04 0.04 0.04 0.04 0.04 0.05 0.05 0.06 0.07 0.08 0.08 0.08 0.09 0.10 0.10 0.09 0.08 0.06 0.04 0.04 0.04 0.03 0.03 0.03 0.04 0.04 0.03 0.03 0.02
0.04 0.04 0.04 0.03 0.02 0.02 0.02 0.02 0.03 0.02 0.02 0.01 0.02 0.03 0.03 0.02 0.03 0.03 0.03 0.04 0.06 0.07 0.07 0.08 0.08 0.08 0.08 0.07 0.06 0.06 0.05 0.04 0.05 0.05 0.05 0.05 0.05 0.05 0.04 0.04 0.03 0.03 0.02
MSLP
1006.66 1007.20 1007.74 1008.26 1008.75 1009.21 1009.65 1010.09 1010.53 1010.98 1011.42 1011.85 1012.25 1012.60 1012.90 1013.15 1013.36 1013.55 1013.75 1013.97 1014.24 1014.57 1014.95 1015.36 1015.81 1016.26 1016.70 1017.10 1017.48 1017.82 1018.13 1018.41 1018.66 1018.89 1019.09 1019.25 1019.37 1019.44 1019.46 1019.44 1019.39 1019.36 1019.35
1006.91 1007.45 1007.97 1008.45 1008.88 1009.27 1009.66 1010.06 1010.48 1010.94 1011.42 1011.90 1012.34 1012.72 1013.03 1013.26 1013.43 1013.57 1013.71 1013.89 1014.12 1014.44 1014.82 1015.27 1015.75 1016.22 1016.68 1017.10 1017.46 1017.79 1018.08 1018.34 1018.59 1018.83 1019.06 1019.25 1019.40 1019.50 1019.53 1019.50 1019.43 1019.34 1019.27
1006.99 1007.52 1008.01 1008.45 1008.83 1009.17 1009.50 1009.86 1010.28 1010.76 1011.28 1011.82 1012.32 1012.77 1013.12 1013.37 1013.53 1013.65 1013.76 1013.90 1014.10 1014.40 1014.77 1015.21 1015.69 1016.17 1016.61 1017.01 1017.36 1017.65 1017.92 1018.17 1018.42 1018.68 1018.93 1019.17 1019.37 1019.51 1019.57 1019.56 1019.48 1019.37 1019.25
1006.87 1007.39 1007.86 1008.27 1008.61 1008.90 1009.20 1009.53 1009.95 1010.45 1011.02 1011.61 1012.20 1012.72 1013.14 1013.44 1013.64 1013.77 1013.88 1014.00 1014.18 1014.45 1014.79 1015.21 1015.66 1016.10 1016.52 1016.88 1017.19 1017.45 1017.69 1017.93 1018.18 1018.46 1018.74 1019.02 1019.27 1019.46 1019.57 1019.58 1019.52 1019.39 1019.23
1006.58 1007.09 1007.57 1007.96 1008.28 1008.55 1008.82 1009.13 1009.54 1010.06 1010.66 1011.32 1011.97 1012.58 1013.08 1013.46 1013.73 1013.90 1014.03 1014.15 1014.32 1014.56 1014.87 1015.23 1015.63 1016.03 1016.40 1016.72 1016.99 1017.22 1017.44 1017.67 1017.92 1018.21 1018.52 1018.83 1019.12 1019.36 1019.50 1019.54 1019.49 1019.36 1019.18
1006.20 1006.72 1007.21 1007.62 1007.94 1008.20 1008.45 1008.75 1009.14 1009.65 1010.27 1010.96 1011.67 1012.35 1012.93 1013.40 1013.73 1013.97 1014.14 1014.28 1014.45 1014.66 1014.93 1015.24 1015.59 1015.93 1016.24 1016.52 1016.76 1016.98 1017.18 1017.41 1017.66 1017.96 1018.29 1018.62 1018.93 1019.19 1019.36 1019.42 1019.38 1019.25 1019.06
1005.83 1006.39 1006.91 1007.35 1007.69 1007.95 1008.19 1008.47 1008.83 1009.31 1009.91 1010.60 1011.33 1012.04 1012.68 1013.21 1013.62 1013.92 1014.13 1014.31 1014.48 1014.67 1014.91 1015.18 1015.47 1015.76 1016.04 1016.30 1016.52 1016.73 1016.94 1017.17 1017.43 1017.73 1018.05 1018.39 1018.70 1018.96 1019.13 1019.21 1019.18 1019.05 1018.86
1005.58 1006.17 1006.74 1007.22 1007.58 1007.86 1008.09 1008.33 1008.65 1009.07 1009.62 1010.26 1010.96 1011.66 1012.32 1012.89 1013.34 1013.70 1013.96 1014.17 1014.35 1014.54 1014.75 1014.99 1015.25 1015.52 1015.78 1016.03 1016.26 1016.48 1016.70 1016.95 1017.22 1017.51 1017.83 1018.15 1018.44 1018.68 1018.85 1018.92 1018.90 1018.79 1018.61
1005.51 1006.14 1006.75 1007.26 1007.66 1007.94 1008.16 1008.36 1008.61 1008.96 1009.41 1009.96 1010.59 1011.24 1011.87 1012.44 1012.92 1013.31 1013.60 1013.84 1014.05 1014.25 1014.45 1014.68 1014.93 1015.19 1015.46 1015.72 1015.97 1016.23 1016.48 1016.74 1017.02 1017.32 1017.62 1017.91 1018.17 1018.39 1018.54 1018.61 1018.59 1018.51 1018.36
1005.63 1006.28 1006.91 1007.45 1007.86 1008.15 1008.35 1008.51 1008.70 1008.95 1009.29 1009.74 1010.26 1010.83 1011.40 1011.93 1012.40 1012.79 1013.12 1013.38 1013.62 1013.83 1014.05 1014.29 1014.55 1014.83 1015.11 1015.40 1015.69 1015.98 1016.27 1016.56 1016.85 1017.13 1017.41 1017.67 1017.90 1018.09 1018.23 1018.30 1018.31 1018.26 1018.16
1005.92 1006.56 1007.18 1007.72 1008.13 1008.41 1008.60 1008.72 1008.85 1009.01 1009.26 1009.59 1009.99 1010.46 1010.94 1011.42 1011.86 1012.25 1012.59 1012.88 1013.14 1013.39 1013.64 1013.91 1014.19 1014.49 1014.81 1015.13 1015.46 1015.78 1016.09 1016.39 1016.68 1016.96 1017.21 1017.45 1017.65 1017.82 1017.95 1018.04 1018.09 1018.09 1018.05
1006.29 1006.88 1007.46 1007.97 1008.37 1008.64 1008.82 1008.93 1009.01 1009.12 1009.28 1009.51 1009.82 1010.19 1010.59 1011.00 1011.41 1011.79 1012.14 1012.45 1012.75 1013.04 1013.33 1013.62 1013.94 1014.27 1014.61 1014.95 1015.30 1015.63 1015.96 1016.26 1016.54 1016.80 1017.03 1017.24 1017.42 1017.59 1017.73 1017.84 1017.94 1018.00 1018.04
1006.65 1007.17 1007.68 1008.14 1008.51 1008.78 1008.96 1009.07 1009.15 1009.23 1009.35 1009.52 1009.76 1010.05 1010.38 1010.74 1011.12 1011.49 1011.85 1012.19 1012.53 1012.86 1013.18 1013.52 1013.86 1014.21 1014.56 1014.91 1015.25 1015.58 1015.88 1016.17 1016.42 1016.65 1016.86 1017.05 1017.22 1017.39 1017.55 1017.70 1017.85 1017.98 1018.09
1006.96 1007.39 1007.82 1008.21 1008.55 1008.82 1009.01 1009.15 1009.25 1009.35 1009.46 1009.61 1009.81 1010.05 1010.34 1010.66 1011.01 1011.38 1011.75 1012.13 1012.51 1012.88 1013.25 1013.61 1013.97 1014.33 1014.67 1015.00 1015.32 1015.61 1015.87 1016.11 1016.33 1016.52 1016.70 1016.87 1017.04 1017.22 1017.41 1017.61 1017.81 1018.00 1018.18
1007.20 1007.53 1007.87 1008.21 1008.51 1008.78 1009.00 1009.18 1009.33 1009.47 1009.61 1009.77 1009.95 1010.17 1010.43 1010.73 1011.07 1011.44 1011.83 1012.24 1012.65 1013.06 1013.47 1013.86 1014.24 1014.59 1014.91 1015.21 1015.47 1015.71 1015.92 1016.10 1016.26 1016.42 1016.57 1016.73 1016.90 1017.10 1017.31 1017.55 1017.80 1018.05 1018.28
1007.39 1007.64 1007.91 1008.19 1008.47 1008.74 1008.99 1009.21 1009.42 1009.60 1009.78 1009.95 1010.14 1010.35 1010.60 1010.88 1011.21 1011.58 1011.98 1012.41 1012.86 1013.31 1013.75 1014.17 1014.56 1014.91 1015.21 1015.47 1015.68 1015.86 1016.00 1016.13 1016.25 1016.36 1016.49 1016.64 1016.82 1017.04 1017.28 1017.55 1017.84 1018.12 1018.39
1007.58 1007.77 1007.99 1008.23 1008.49 1008.76 1009.03 1009.29 1009.54 1009.76 1009.96 1010.15 1010.33 1010.53 1010.75 1011.01 1011.32 1011.69 1012.10 1012.55 1013.02 1013.51 1013.98 1014.43 1014.84 1015.19 1015.48 1015.71 1015.89 1016.03 1016.13 1016.22 1016.30 1016.39 1016.51 1016.66 1016.85 1017.09 1017.36 1017.65 1017.96 1018.26 1018.54
1007.81 1007.99 1008.19 1008.41 1008.65 1008.92 1009.19 1009.46 1009.71 1009.94 1010.14 1010.31 1010.48 1010.64 1010.83 1011.05 1011.33 1011.68 1012.08 1012.54 1013.04 1013.55 1014.06 1014.55 1014.98 1015.36 1015.67 1015.91 1016.09 1016.22 1016.31 1016.38 1016.46 1016.55 1016.68 1016.84 1017.05 1017.31 1017.59 1017.90 1018.21 1018.51 1018.79
1008.12 1008.33 1008.53 1008.75 1008.98 1009.23 1009.49 1009.73 1009.96 1010.16 1010.32 1010.45 1010.56 1010.67 1010.80 1010.98 1011.22 1011.53 1011.91 1012.37 1012.88 1013.42 1013.97 1014.51 1014.99 1015.42 1015.78 1016.06 1016.28 1016.44 1016.56 1016.67 1016.77 1016.89 1017.05 1017.24 1017.47 1017.74 1018.03 1018.34 1018.65 1018.93 1019.19
1008.52 1008.78 1009.01 1009.24 1009.46 1009.68 1009.90 1010.10 1010.27 1010.41 1010.51 1010.57 1010.62 1010.66 1010.73 1010.84 1011.03 1011.30 1011.66 1012.11 1012.63 1013.19 1013.78 1014.37 1014.92 1015.42 1015.86 1016.22 1016.51 1016.75 1016.94 1017.11 1017.27 1017.44 1017.63 1017.86 1018.11 1018.39 1018.69 1018.99 1019.28 1019.54 1019.76
1009.00 1009.32 1009.60 1009.84 1010.05 1010.25 1010.41 1010.55 1010.66 1010.72 1010.75 1010.74 1010.72 1010.70 1010.70 1010.77 1010.90 1011.14 1011.47 1011.90 1012.42 1013.00 1013.63 1014.27 1014.89 1015.47 1016.00 1016.46 1016.86 1017.19 1017.48 1017.73 1017.96 1018.19 1018.42 1018.68 1018.95 1019.23 1019.52 1019.80 1020.06 1020.29 1020.47
1009.52 1009.92 1010.24 1010.50 1010.71 1010.87 1011.00 1011.08 1011.12 1011.13 1011.09 1011.03 1010.96 1010.89 1010.86 1010.89 1011.00 1011.20 1011.51 1011.93 1012.44 1013.03 1013.68 1014.36 1015.04 1015.70 1016.31 1016.87 1017.37 1017.80 1018.18 1018.51 1018.81 1019.09 1019.36 1019.63 1019.91 1020.18 1020.44 1020.69 1020.92 1021.10 1021.25
1010.07 1010.53 1010.89 1011.18 1011.39 1011.54 1011.64 1011.69 1011.69 1011.66 1011.60 1011.52 1011.44 1011.37 1011.33 1011.36 1011.46 1011.65 1011.95 1012.34 1012.84 1013.42 1014.08 1014.77 1015.49 1016.19 1016.87 1017.50 1018.08 1018.59 1019.03 1019.42 1019.77 1020.07 1020.35 1020.62 1020.87 1021.11 1021.34 1021.55 1021.73 1021.87 1021.98
1010.64 1011.14 1011.55 1011.86 1012.09 1012.25 1012.34 1012.38 1012.39 1012.36 1012.32 1012.26 1012.21 1012.18 1012.19 1012.24 1012.37 1012.57 1012.86 1013.24 1013.71 1014.27 1014.90 1015.57 1016.28 1016.99 1017.69 1018.34 1018.95 1019.49 1019.97 1020.38 1020.73 1021.03 1021.29 1021.52 1021.73 1021.92 1022.09 1022.25 1022.39 1022.50 1022.57
1011.24 1011.77 1012.21 1012.55 1012.81 1012.99 1013.11 1013.18 1013.22 1013.24 1013.25 1013.27 1013.29 1013.34 1013.42 1013.54 1013.70 1013.93 1014.22 1014.59 1015.03 1015.54 1016.11 1016.73 1017.38 1018.05 1018.71 1019.34 1019.93 1020.45 1020.91 1021.29 1021.61 1021.87 1022.08 1022.25 1022.40 1022.52 1022.64 1022.74 1022.84 1022.91 1022.96
1011.88 1012.44 1012.90 1013.27 1013.56 1013.78 1013.94 1014.06 1014.16 1014.26 1014.36 1014.47 1014.60 1014.75 1014.92 1015.12 1015.34 1015.60 1015.90 1016.25 1016.64 1017.08 1017.58 1018.11 1018.67 1019.25 1019.83 1020.38 1020.90 1021.36 1021.76 1022.08 1022.33 1022.53 1022.67 1022.77 1022.84 1022.91 1022.97 1023.02 1023.08 1023.13 1023.17
Thickness
5824 5822 5818 5814 5807 5801 5794 5788 5783 5779 5774 5768 5764 5761 5759 5760 5760 5760 5759 5758 5757 5756 5755 5756 5754 5753 5752 5751 5749 5748 5745 5744 5746 5741 5738 5742 5745 5745 5744 5743 5742 5740 5739
5820 5817 5814 5811 5805 5798 5793 5787 5782 5778 5774 5770 5767 5764 5761 5760 5760 5760 5759 5758 5757 5756 5755 5753 5753 5752 5750 5749 5748 5746 5743 5743 5745 5739 5732 5728 5733 5740 5746 5744 5743 5743 5741
5818 5815 5811 5807 5802 5796 5792 5788 5782 5778 5774 5771 5766 5762 5759 5758 5758 5757 5757 5757 5757 5756 5755 5753 5752 5751 5750 5747 5746 5746 5742 5739 5742 5743 5735 5726 5723 5731 5740 5744 5745 5744 5742
5822 5815 5811 5806 5802 5797 5793 5788 5782 5778 5773 5770 5765 5760 5756 5754 5756 5757 5757 5756 5756 5755 5754 5753 5752 5751 5750 5748 5746 5746 5744 5741 5738 5740 5741 5739 5735 5729 5728 5736 5742 5744 5743
5824 5814 5811 5807 5803 5799 5793 5788 5781 5776 5772 5769 5765 5760 5757 5756 5757 5758 5756 5754 5754 5754 5753 5752 5751 5749 5749 5748 5747 5746 5744 5742 5739 5738 5739 5738 5738 5737 5730 5727 5734 5738 5742
5823 5813 5808 5805 5801 5797 5792 5786 5779 5774 5771 5767 5764 5760 5757 5756 5755 5754 5753 5752 5752 5752 5752 5751 5750 5749 5748 5747 5746 5745 5743 5742 5741 5740 5739 5737 5735 5733 5732 5729 5730 5732 5739
5821 5813 5806 5802 5797 5793 5789 5785 5778 5772 5770 5766 5763 5761 5758 5756 5753 5752 5751 5750 5749 5749 5750 5751 5749 5748 5747 5747 5746 5744 5743 5742 5740 5739 5739 5739 5739 5739 5737 5733 5731 5732 5736
5819 5812 5807 5801 5797 5792 5788 5783 5777 5772 5769 5766 5763 5761 5759 5756 5753 5752 5751 5750 5749 5750 5750 5749 5748 5747 5746 5746 5744 5743 5742 5741 5740 5739 5738 5738 5739 5740 5739 5736 5731 5726 5728
5816 5810 5806 5801 5796 5791 5786 5782 5776 5772 5769 5766 5763 5760 5758 5756 5753 5752 5751 5750 5750 5750 5749 5747 5746 5745 5745 5743 5742 5741 5740 5740 5739 5738 5737 5736 5737 5738 5739 5738 5735 5726 5719
5811 5807 5803 5799 5795 5791 5786 5781 5776 5771 5768 5765 5762 5760 5758 5756 5753 5751 5750 5749 5748 5748 5747 5746 5745 5743 5742 5742 5740 5739 5739 5737 5737 5736 5735 5734 5735 5735 5736 5735 5734 5732 5725
5806 5802 5799 5796 5792 5788 5783 5777 5774 5770 5766 5763 5761 5759 5756 5754 5752 5749 5748 5748 5747 5745 5744 5743 5742 5740 5739 5739 5737 5737 5736 5735 5734 5734 5732 5731 5731 5730 5731 5731 5730 5728 5725
5802 5798 5794 5791 5787 5783 5779 5774 5771 5767 5764 5762 5759 5756 5754 5752 5749 5747 5746 5745 5743 5742 5741 5740 5738 5737 5736 5735 5734 5733 5733 5732 5730 5730 5729 5728 5728 5726 5725 5725 5724 5723 5722
5794 5791 5788 5785 5781 5778 5775 5771 5768 5764 5762 5759 5756 5753 5750 5747 5745 5744 5743 5742 5740 5738 5737 5736 5735 5734 5733 5732 5731 5730 5730 5729 5727 5726 5725 5724 5722 5720 5719 5719 5718 5717 5717
5789 5784 5780 5778 5775 5773 5770 5766 5764 5761 5758 5755 5751 5748 5745 5743 5741 5740 5739 5738 5737 5735 5733 5732 5732 5731 5730 5728 5727 5727 5725 5724 5723 5722 5720 5719 5717 5715 5714 5713 5711 5710 5708
5781 5778 5774 5771 5769 5766 5763 5761 5759 5755 5752 5748 5745 5743 5741 5739 5737 5736 5734 5734 5732 5730 5729 5728 5727 5725 5724 5724 5723 5722 5720 5718 5716 5715 5713 5712 5711 5710 5708 5706 5704 5703 5700
5776 5772 5768 5765 5762 5760 5757 5755 5753 5750 5746 5742 5739 5738 5737 5734 5732 5730 5729 5727 5726 5724 5722 5720 5719 5717 5717 5716 5716 5715 5714 5712 5709 5706 5705 5704 5703 5702 5700 5698 5697 5695 5692
5771 5766 5762 5759 5756 5755 5753 5749 5747 5744 5740 5737 5734 5733 5731 5728 5726 5724 5722 5720 5718 5716 5714 5712 5710 5709 5707 5708 5708 5707 5705 5702 5700 5698 5697 5697 5696 5694 5692 5690 5688 5686 5685
5763 5760 5757 5754 5753 5751 5748 5745 5742 5738 5734 5731 5729 5727 5725 5722 5720 5717 5715 5713 5711 5709 5706 5704 5702 5700 5698 5698 5699 5698 5696 5693 5691 5689 5687 5686 5685 5684 5682 5682 5680 5676 5674
5758 5754 5752 5750 5747 5744 5741 5737 5733 5730 5726 5723 5721 5720 5718 5716 5713 5710 5708 5705 5703 5700 5698 5696 5694 5692 5689 5689 5689 5688 5686 5683 5680 5677 5675 5675 5673 5672 5672 5671 5669 5665 5662
5750 5747 5745 5742 5737 5735 5733 5729 5724 5721 5718 5716 5714 5713 5711 5709 5706 5703 5701 5699 5696 5693 5691 5687 5685 5683 5680 5679 5679 5678 5677 5673 5669 5666 5663 5661 5661 5660 5660 5659 5657 5653 5650
5740 5738 5734 5730 5727 5726 5724 5719 5715 5711 5710 5709 5707 5705 5703 5701 5698 5696 5694 5691 5688 5685 5682 5678 5675 5672 5670 5669 5669 5668 5668 5664 5659 5655 5651 5648 5648 5648 5647 5646 5644 5640 5639
5729 5726 5722 5718 5717 5716 5713 5708 5703 5702 5702 5700 5698 5695 5694 5693 5691 5688 5686 5684 5681 5677 5673 5670 5665 5661 5659 5658 5657 5656 5655 5653 5649 5644 5640 5636 5636 5635 5634 5633 5631 5630 5628
5718 5716 5712 5708 5706 5704 5702 5697 5694 5693 5692 5690 5687 5685 5684 5682 5681 5679 5677 5675 5672 5670 5665 5662 5657 5652 5649 5646 5645 5644 5643 5641 5638 5633 5629 5627 5626 5624 5623 5621 5619 5618 5616
5707 5705 5703 5698 5695 5693 5691 5688 5686 5685 5683 5679 5677 5675 5672 5670 5668 5667 5665 5663 5662 5660 5656 5652 5648 5643 5639 5636 5634 5632 5629 5627 5625 5622 5619 5617 5615 5613 5611 5609 5606 5604 5602
5697 5695 5692 5688 5684 5682 5681 5679 5677 5676 5673 5670 5668 5664 5661 5657 5652 5647 5644 5645 5642 5644 5644 5641 5637 5633 5628 5622 5621 5621 5619 5616 5614 5611 5610 5608 5605 5602 5599 5596 5593 5590 5588
5686 5683 5681 5677 5674 5672 5670 5669 5668 5667 5665 5661 5659 5656 5652 5648 5643 5637 5630 5626 5627 5627 5627 5625 5623 5617 5613 5611 5610 5608 5607 5605 5603 5602 5599 5595 5593 5589 5586 5583 5578 5575 5572